• In Kazakhstan
  • List of Countries
  • For 7 days
  • Water Temperature
  • Satellite Maps
  • Weather Map
  • News
  • Weather Widgets
  • user-avatar
    Login

    Hourly Weather Ashtarak

    Today, 18 March, Monday

    Time Temperature Precipitation Wind Pressure Humidity
    00:00 0°C° 0.1 mm 4 mps 652 mmHg 63%
    01:00 +1°C° 0 mm 3 mps 652 mmHg 63%
    02:00 0°C° 0 mm 3 mps 653 mmHg 63%
    03:00 -1°C° 0 mm 3 mps 653 mmHg 61%
    04:00 -1°C° 0 mm 3 mps 653 mmHg 61%
    05:00 -1°C° 0 mm 2 mps 654 mmHg 62%
    06:00 0°C° 0 mm 1 mps 654 mmHg 62%
    07:00 -1°C° 0 mm 2 mps 655 mmHg 59%
    08:00 +1°C° 0 mm 2 mps 655 mmHg 56%
    09:00 +4°C° 0 mm 1 mps 655 mmHg 53%
    10:00 +4°C° 0.1 mm 2 mps 655 mmHg 52%
    11:00 +4°C° 0.1 mm 2 mps 656 mmHg 51%
    12:00 +5°C° 0.1 mm 2 mps 656 mmHg 49%
    13:00 +5°C° 0.1 mm 2 mps 656 mmHg 49%
    14:00 +4°C° 0.1 mm 3 mps 656 mmHg 48%
    15:00 +5°C° 0 mm 2 mps 656 mmHg 48%
    16:00 +4°C° 0.1 mm 2 mps 656 mmHg 50%
    17:00 +4°C° 0.1 mm 2 mps 657 mmHg 51%
    18:00 +3°C° 0.1 mm 2 mps 657 mmHg 52%
    19:00 +3°C° 0.1 mm 1 mps 657 mmHg 54%
    20:00 +3°C° 0.1 mm 1 mps 658 mmHg 55%
    21:00 +2°C° 0.1 mm 1 mps 658 mmHg 56%
    22:00 +1°C° 0 mm 1 mps 658 mmHg 57%
    23:00 0°C° 0 mm 0 mps 658 mmHg 58%

    Tomorrow, 19 March, Tuesday

    Time Temperature Precipitation Wind Pressure Humidity
    00:00 -1°C° 0 mm 0 mps 658 mmHg 59%
    01:00 -1°C° 0 mm 0 mps 658 mmHg 60%
    02:00 -2°C° 0 mm 0 mps 658 mmHg 61%
    03:00 -2°C° 0 mm 0 mps 658 mmHg 62%
    04:00 -2°C° 0.1 mm 0 mps 659 mmHg 63%
    05:00 -3°C° 0.1 mm 0 mps 659 mmHg 65%
    06:00 -3°C° 0.1 mm 0 mps 659 mmHg 66%
    07:00 -2°C° 0 mm 0 mps 659 mmHg 63%
    08:00 0°C° 0 mm 1 mps 659 mmHg 60%
    09:00 +1°C° 0 mm 1 mps 660 mmHg 56%
    10:00 +3°C° 0 mm 1 mps 659 mmHg 53%
    11:00 +4°C° 0 mm 1 mps 659 mmHg 49%
    12:00 +5°C° 0 mm 1 mps 659 mmHg 46%
    13:00 +5°C° 0 mm 1 mps 659 mmHg 44%
    14:00 +6°C° 0 mm 1 mps 659 mmHg 41%
    15:00 +5°C° 0 mm 2 mps 659 mmHg 39%
    16:00 +5°C° 0 mm 2 mps 659 mmHg 41%
    17:00 +4°C° 0 mm 2 mps 659 mmHg 43%
    18:00 +4°C° 0 mm 2 mps 659 mmHg 45%
    19:00 +4°C° 0.1 mm 1 mps 659 mmHg 47%
    20:00 +3°C° 0.1 mm 1 mps 659 mmHg 48%
    21:00 +3°C° 0.1 mm 1 mps 660 mmHg 50%
    22:00 +3°C° 0 mm 1 mps 659 mmHg 52%
    23:00 +2°C° 0 mm 1 mps 659 mmHg 53%

    Day after tomorrow, 20 March, Wednesday

    Time Temperature Precipitation Wind Pressure Humidity
    00:00 +2°C° 0 mm 1 mps 659 mmHg 55%
    01:00 +2°C° 0.1 mm 1 mps 659 mmHg 56%
    02:00 +2°C° 0.1 mm 1 mps 659 mmHg 57%
    03:00 +2°C° 0.1 mm 1 mps 659 mmHg 59%
    04:00 +2°C° 0.1 mm 1 mps 658 mmHg 60%
    05:00 0°C° 0.1 mm 0 mps 658 mmHg 61%
    06:00 0°C° 0.1 mm 0 mps 658 mmHg 62%
    07:00 +3°C° 0.1 mm 1 mps 658 mmHg 60%
    08:00 +4°C° 0.1 mm 1 mps 658 mmHg 57%
    09:00 +5°C° 0.1 mm 1 mps 658 mmHg 54%
    10:00 +6°C° 0.1 mm 1 mps 658 mmHg 53%
    11:00 +7°C° 0.1 mm 1 mps 658 mmHg 52%
    12:00 +7°C° 0.1 mm 2 mps 657 mmHg 51%
    13:00 +8°C° 0.1 mm 2 mps 657 mmHg 50%
    14:00 +8°C° 0.1 mm 2 mps 657 mmHg 49%
    15:00 +9°C° 0.1 mm 2 mps 657 mmHg 48%
    16:00 +8°C° 0.1 mm 2 mps 657 mmHg 50%
    17:00 +9°C° 0.1 mm 1 mps 657 mmHg 51%
    18:00 +8°C° 0.1 mm 1 mps 657 mmHg 53%
    19:00 +8°C° 0 mm 1 mps 657 mmHg 55%
    20:00 +7°C° 0 mm 1 mps 658 mmHg 57%
    21:00 +6°C° 0 mm 1 mps 658 mmHg 58%
    22:00 +6°C° 0 mm 1 mps 658 mmHg 60%
    23:00 +5°C° 0 mm 1 mps 658 mmHg 62%

    21 March, Thursday

    Time Temperature Precipitation Wind Pressure Humidity
    00:00 +5°C° 0 mm 1 mps 658 mmHg 63%
    01:00 +4°C° 0 mm 1 mps 658 mmHg 64%
    02:00 +4°C° 0 mm 1 mps 658 mmHg 64%
    03:00 +4°C° 0 mm 1 mps 658 mmHg 65%
    04:00 +3°C° 0 mm 1 mps 658 mmHg 65%
    05:00 +3°C° 0 mm 1 mps 658 mmHg 66%
    06:00 +3°C° 0 mm 1 mps 658 mmHg 66%
    07:00 +4°C° 0 mm 1 mps 658 mmHg 63%
    08:00 +6°C° 0 mm 1 mps 658 mmHg 59%
    09:00 +7°C° 0 mm 1 mps 659 mmHg 55%
    10:00 +8°C° 0 mm 1 mps 658 mmHg 54%
    11:00 +9°C° 0 mm 1 mps 658 mmHg 52%
    12:00 +10°C° 0 mm 1 mps 658 mmHg 51%
    13:00 +10°C° 0 mm 1 mps 658 mmHg 49%
    14:00 +11°C° 0 mm 1 mps 657 mmHg 48%
    15:00 +11°C° 0 mm 1 mps 657 mmHg 47%
    16:00 +10°C° 0 mm 1 mps 657 mmHg 48%
    17:00 +10°C° 0 mm 1 mps 657 mmHg 49%
    18:00 +9°C° 0 mm 1 mps 657 mmHg 50%
    19:00 +8°C° 0 mm 1 mps 657 mmHg 53%
    20:00 +7°C° 0 mm 1 mps 657 mmHg 55%
    21:00 +6°C° 0 mm 1 mps 658 mmHg 58%
    22:00 +6°C° 0 mm 1 mps 658 mmHg 60%
    23:00 +4°C° 0 mm 0 mps 658 mmHg 61%

    22 March, Friday

    Time Temperature Precipitation Wind Pressure Humidity
    00:00 +4°C° 0 mm 0 mps 657 mmHg 63%
    01:00 +4°C° 0 mm 0 mps 657 mmHg 64%
    02:00 +3°C° 0 mm 0 mps 657 mmHg 65%
    03:00 +3°C° 0 mm 0 mps 657 mmHg 66%
    04:00 +3°C° 0 mm 0 mps 657 mmHg 67%
    05:00 +2°C° 0 mm 0 mps 657 mmHg 67%
    06:00 +2°C° 0 mm 0 mps 657 mmHg 67%
    07:00 +4°C° 0 mm 1 mps 657 mmHg 63%
    08:00 +5°C° 0 mm 1 mps 657 mmHg 59%
    09:00 +5°C° 0 mm 2 mps 658 mmHg 54%
    10:00 +6°C° 0 mm 2 mps 657 mmHg 51%
    11:00 +7°C° 0 mm 2 mps 657 mmHg 47%
    12:00 +8°C° 0 mm 2 mps 657 mmHg 43%
    13:00 +8°C° 0 mm 2 mps 656 mmHg 42%
    14:00 +8°C° 0 mm 2 mps 656 mmHg 40%
    15:00 +9°C° 0 mm 2 mps 656 mmHg 39%
    16:00 +8°C° 0.1 mm 2 mps 656 mmHg 41%
    17:00 +7°C° 0.1 mm 2 mps 656 mmHg 44%
    18:00 +7°C° 0.1 mm 2 mps 656 mmHg 47%
    19:00 +6°C° 0.2 mm 2 mps 657 mmHg 49%
    20:00 +5°C° 0.2 mm 2 mps 657 mmHg 52%
    21:00 +4°C° 0.2 mm 2 mps 658 mmHg 54%
    22:00 +4°C° 0 mm 2 mps 658 mmHg 51%
    23:00 +3°C° 0 mm 2 mps 658 mmHg 48%

    23 March, Saturday

    Time Temperature Precipitation Wind Pressure Humidity
    00:00 +3°C° 0 mm 2 mps 658 mmHg 45%
    01:00 +2°C° 0 mm 2 mps 658 mmHg 45%
    02:00 +2°C° 0 mm 2 mps 658 mmHg 44%
    03:00 0°C° 0 mm 3 mps 658 mmHg 43%
    04:00 0°C° 0 mm 3 mps 658 mmHg 44%
    05:00 -1°C° 0 mm 3 mps 658 mmHg 44%
    06:00 -2°C° 0 mm 3 mps 658 mmHg 44%
    07:00 -1°C° 0 mm 3 mps 658 mmHg 42%
    08:00 0°C° 0 mm 3 mps 659 mmHg 39%
    09:00 0°C° 0 mm 3 mps 659 mmHg 36%
    10:00 +1°C° 0 mm 3 mps 659 mmHg 35%
    11:00 +1°C° 0 mm 4 mps 659 mmHg 34%
    12:00 +3°C° 0 mm 4 mps 659 mmHg 33%
    13:00 +3°C° 0 mm 4 mps 658 mmHg 33%
    14:00 +3°C° 0 mm 4 mps 658 mmHg 34%
    15:00 +3°C° 0 mm 5 mps 658 mmHg 34%
    16:00 +3°C° 0 mm 4 mps 658 mmHg 36%
    17:00 +1°C° 0 mm 4 mps 658 mmHg 38%
    18:00 +2°C° 0 mm 3 mps 658 mmHg 41%
    19:00 +1°C° 0 mm 3 mps 658 mmHg 43%
    20:00 +1°C° 0 mm 2 mps 659 mmHg 46%
    21:00 +1°C° 0 mm 2 mps 659 mmHg 49%
    22:00 -1°C° 0 mm 2 mps 659 mmHg 50%
    23:00 -1°C° 0 mm 2 mps 658 mmHg 51%
    Show more